Weather History for McConnell AFB, KS

Change the Weather History Date:

Wednesday, October 30, 2013

  Actual Average Record
Temperature  
Mean Temperature 61 °F -  
Max Temperature 72 °F 60 °F 78 °F (2000)
Min Temperature 51 °F 42 °F 30 °F (1996)
Degree Days  
Heating Degree Days 4    
Growing Degree Days 11 (Base 50)    
Moisture  
Dew Point 61 °F    
Average Humidity 100    
Maximum Humidity 100    
Minimum Humidity 100    
Precipitation  
Precipitation 0.25 in - - ()
Sea Level Pressure  
Sea Level Pressure 29.84 in    
Wind  
Wind Speed 8 mph (East)    
Max Wind Speed 18 mph    
Max Gust Speed 25 mph    
Visibility 8 miles    
Events Rain    
Averages and records for this station are not official NWS values.
T = Trace of Precipitation, MM = Missing Value Source: NWS Daily Summary

Daily Weather History Graph

Daily Weather History Graph

Search for Another Location

Airport:

Trip Planner

Search our weather history database for the weather conditions in past years. The results will help you decide how hot, cold, wet, or windy it might be!

Date:

Astronomy

Oct. 30, 2013 Rise Set
Actual Time 7:52 AM CDT 6:32 PM CDT
Civil Twilight 7:25 AM CDT 6:59 PM CDT
Nautical Twilight 6:54 AM CDT 7:30 PM CDT
Astronomical Twilight 6:23 AM CDT 8:00 PM CDT
Moon 3:46 AM CDT (10/30) 4:14 PM CDT (10/30)
Length of Visible Light 11h 34m
Length of Day
10h 40m
Waning Crescent, 17% of the Moon is Illuminated
Oct 30
Waning Crescent
Nov 3
New
Nov 9
First Quarter
Nov 17
Full
Nov 25
Last Quarter

Hourly Weather History & Observations

Time (CDT) Temp. Dew Point Humidity Pressure Visibility Wind Dir Wind Speed Gust Speed Precip Events Conditions
12:03 AM 59.0 °F 59.0 °F 100% 29.98 in 10.0 mi Variable 4.6 mph - N/A   Light Drizzle
12:16 AM 59.0 °F 59.0 °F 100% 29.98 in 10.0 mi North 4.6 mph - N/A   Overcast
12:31 AM 59.0 °F 59.0 °F 100% 29.97 in 10.0 mi NE 3.5 mph - N/A   Overcast
12:58 AM 59.5 °F 59.5 °F 100% 29.95 in 10.0 mi NE 5.8 mph - 0.00 in   Overcast
1:08 AM 59.0 °F 59.0 °F 100% 29.96 in 10.0 mi NNE 4.6 mph - N/A   Overcast
1:14 AM 59.0 °F 59.0 °F 100% 29.96 in 10.0 mi NNE 6.9 mph - N/A   Overcast
1:29 AM 59.0 °F 59.0 °F 100% 29.96 in 9.0 mi NNE 5.8 mph - N/A   Overcast
1:34 AM 59.0 °F 59.0 °F 100% 29.96 in 9.0 mi NNE 4.6 mph - N/A   Overcast
1:54 AM 59.0 °F 59.0 °F 100% 29.95 in 6.0 mi NE 6.9 mph - N/A   Overcast
1:58 AM 59.0 °F 59.0 °F 100% 29.94 in 6.0 mi NE 2.3 mph - N/A   Overcast
2:03 AM 59.0 °F 59.0 °F 100% 29.94 in 6.0 mi NE 5.8 mph - N/A   Overcast
2:13 AM 57.2 °F 57.2 °F 100% 29.94 in 5.0 mi ENE 3.5 mph - N/A   Overcast
2:38 AM 57.2 °F 57.2 °F 100% 29.93 in 4.0 mi East 5.8 mph - N/A   Overcast
2:53 AM 59.0 °F 59.0 °F 100% 29.92 in 3.0 mi East 4.6 mph - N/A   Overcast
2:58 AM 58.3 °F 58.3 °F 100% 29.90 in 2.5 mi East 4.6 mph - N/A   Overcast
3:01 AM 59.0 °F 59.0 °F 100% 29.91 in 2.0 mi East 3.5 mph - N/A   Light Drizzle
3:06 AM 59.0 °F 59.0 °F 100% 29.91 in 1.8 mi East 3.5 mph - N/A   Light Drizzle
3:21 AM 59.0 °F 59.0 °F 100% 29.91 in 1.8 mi East 4.6 mph - N/A   Light Drizzle
3:26 AM 59.0 °F 59.0 °F 100% 29.92 in 1.8 mi Variable 3.5 mph - N/A   Light Drizzle
3:27 AM 59.0 °F 59.0 °F 100% 29.92 in 1.8 mi East 3.5 mph - N/A   Overcast
3:32 AM 59.0 °F 59.0 °F 100% 29.91 in 2.0 mi East 4.6 mph - N/A   Light Drizzle
3:43 AM 59.0 °F 59.0 °F 100% 29.91 in 2.0 mi ENE 2.3 mph - N/A   Overcast
3:44 AM 59.0 °F 59.0 °F 100% 29.91 in 2.0 mi ENE 2.3 mph - N/A   Light Drizzle
3:49 AM 60.8 °F 60.8 °F 100% 29.91 in 2.5 mi ENE 2.3 mph - N/A   Light Drizzle
3:54 AM 60.8 °F 60.8 °F 100% 29.91 in 3.0 mi NE 2.3 mph - N/A   Light Drizzle
3:57 AM 60.8 °F 60.8 °F 100% 29.91 in 3.0 mi NE 3.5 mph - N/A   Overcast
3:58 AM 60.8 °F 60.8 °F 100% 29.90 in 3.0 mi NE 4.6 mph - 0.01 in   Overcast
4:09 AM 59.0 °F 59.0 °F 100% 29.90 in 3.0 mi ENE 5.8 mph - N/A   Light Drizzle
4:29 AM 60.8 °F 60.8 °F 100% 29.90 in 3.0 mi ESE 3.5 mph - N/A   Overcast
4:58 AM 61.5 °F 61.5 °F 100% 29.89 in 4.0 mi WNW 5.8 mph - 0.00 in   Overcast
5:03 AM 60.8 °F 60.8 °F 100% 29.90 in 4.0 mi South 9.2 mph - N/A   Overcast
5:06 AM 62.6 °F 62.6 °F 100% 29.89 in 5.0 mi SSW 13.8 mph 20.7 mph N/A   Overcast
5:07 AM 62.6 °F 62.6 °F 100% 29.89 in 5.0 mi SW 11.5 mph 20.7 mph N/A   Overcast
5:17 AM 64.4 °F 64.4 °F 100% 29.90 in 5.0 mi SSE 10.4 mph 19.6 mph N/A   Overcast
5:22 AM 64.4 °F 64.4 °F 100% 29.89 in 6.0 mi South 12.7 mph - N/A   Overcast
5:27 AM 66.2 °F 66.2 °F 100% 29.89 in 7.0 mi South 11.5 mph - N/A   Overcast
5:32 AM 66.2 °F 66.2 °F 100% 29.89 in 7.0 mi South 12.7 mph - N/A   Overcast
5:47 AM 66.2 °F 66.2 °F 100% 29.89 in 10.0 mi SSE 13.8 mph - N/A   Mostly Cloudy
5:48 AM 66.2 °F 66.2 °F 100% 29.89 in 10.0 mi South 15.0 mph - N/A   Mostly Cloudy
5:58 AM 67.3 °F 67.3 °F 100% 29.87 in 10.0 mi South 15.0 mph - N/A   Mostly Cloudy
6:03 AM 68.0 °F 68.0 °F 100% 29.88 in 10.0 mi South 13.8 mph - N/A   Mostly Cloudy
6:08 AM 68.0 °F 68.0 °F 100% 29.88 in 10.0 mi South 13.8 mph - N/A   Mostly Cloudy
6:23 AM 68.0 °F 68.0 °F 100% 29.88 in 10.0 mi South 15.0 mph - N/A   Overcast
6:28 AM 68.0 °F 68.0 °F 100% 29.88 in 10.0 mi South 15.0 mph - N/A   Mostly Cloudy
6:58 AM 67.8 °F 67.8 °F 100% 29.86 in 10.0 mi South 17.3 mph 25.3 mph N/A   Overcast
7:38 AM 68.0 °F 68.0 °F 100% 29.87 in 10.0 mi South 16.1 mph 24.2 mph N/A Rain Light Rain
7:48 AM 68.0 °F 68.0 °F 100% 29.87 in 10.0 mi South 17.3 mph - N/A   Overcast
7:53 AM 68.0 °F 68.0 °F 100% 29.87 in 8.0 mi South 17.3 mph 23.0 mph N/A Rain Light Rain
7:58 AM 68.0 °F 68.0 °F 100% 29.86 in 8.0 mi South 13.8 mph 23.0 mph 0.01 in Rain Light Rain
8:10 AM 68.0 °F 68.0 °F 100% 29.87 in 10.0 mi South 16.1 mph - N/A Rain Light Rain
8:13 AM 68.0 °F 68.0 °F 100% 29.87 in 10.0 mi South 16.1 mph - N/A   Overcast
8:18 AM 68.0 °F 68.0 °F 100% 29.87 in 10.0 mi South 13.8 mph - N/A   Overcast
8:23 AM 68.0 °F 68.0 °F 100% 29.87 in 10.0 mi South 15.0 mph - N/A   Overcast
8:26 AM 68.0 °F 68.0 °F 100% 29.87 in 10.0 mi South 13.8 mph - N/A   Overcast
8:55 AM 68.0 °F 68.0 °F 100% 29.86 in 6.0 mi South 16.1 mph 20.7 mph N/A Rain Light Rain
8:58 AM 67.8 °F 67.8 °F 100% 29.85 in 6.0 mi South 13.8 mph - 0.01 in Rain Light Rain
9:03 AM 68.0 °F 68.0 °F 100% 29.86 in 8.0 mi South 13.8 mph - N/A Rain Light Rain
9:05 AM 68.0 °F 68.0 °F 100% 29.87 in 10.0 mi South 13.8 mph - N/A   Overcast
9:10 AM 68.0 °F 68.0 °F 100% 29.87 in 10.0 mi South 13.8 mph - N/A   Mostly Cloudy
9:15 AM 68.0 °F 68.0 °F 100% 29.87 in 10.0 mi South 13.8 mph - N/A   Mostly Cloudy
9:30 AM 68.0 °F 68.0 °F 100% 29.87 in 10.0 mi South 13.8 mph - N/A   Mostly Cloudy
9:35 AM 68.0 °F 68.0 °F 100% 29.87 in 10.0 mi South 12.7 mph - N/A   Mostly Cloudy
9:40 AM 68.0 °F 68.0 °F 100% 29.87 in 10.0 mi South 11.5 mph - N/A   Mostly Cloudy
9:45 AM 68.0 °F 68.0 °F 100% 29.87 in 10.0 mi South 12.7 mph - N/A   Overcast
9:55 AM 68.0 °F 68.0 °F 100% 29.87 in 10.0 mi South 12.7 mph - N/A   Overcast
9:58 AM 68.4 °F 68.4 °F 100% 29.86 in 10.0 mi South 13.8 mph - 0.00 in   Overcast
10:53 AM 68.0 °F 68.0 °F 100% 29.86 in 10.0 mi South 12.7 mph - N/A   Overcast
10:58 AM 68.4 °F 68.4 °F 100% 29.85 in 10.0 mi South 13.8 mph - N/A   Overcast
11:33 AM 69.8 °F 69.8 °F 100% 29.84 in 10.0 mi South 16.1 mph 23.0 mph N/A   Mostly Cloudy
11:48 AM 69.8 °F 69.8 °F 100% 29.84 in 10.0 mi South 12.7 mph - N/A   Mostly Cloudy
11:58 AM 71.2 °F 71.2 °F 100% 29.82 in 10.0 mi South 16.1 mph 21.9 mph N/A   Mostly Cloudy
12:58 PM 70.0 °F 70.0 °F 100% 29.81 in 10.0 mi South 12.7 mph - N/A   Mostly Cloudy
1:53 PM 71.6 °F 71.6 °F 100% 29.77 in 10.0 mi South 16.1 mph - N/A   Scattered Clouds
1:58 PM 71.6 °F 71.6 °F 100% 29.75 in 10.0 mi South 18.4 mph 21.9 mph N/A   Scattered Clouds
2:03 PM 71.6 °F 71.6 °F 100% 29.75 in 10.0 mi South 17.3 mph 21.9 mph N/A   Mostly Cloudy
2:58 PM 70.9 °F 70.9 °F 100% 29.75 in 10.0 mi SSW 15.0 mph - N/A   Overcast
3:12 PM 64.4 °F 64.4 °F 100% 29.76 in 10.0 mi NW 5.8 mph - N/A Rain Light Rain
3:17 PM 64.4 °F 64.4 °F 100% 29.74 in 10.0 mi Calm Calm - N/A Rain Light Rain
3:38 PM 64.4 °F 64.4 °F 100% 29.76 in 2.5 mi NW 12.7 mph - N/A Rain Heavy Rain
3:43 PM 62.6 °F 62.6 °F 100% 29.75 in 2.0 mi WNW 4.6 mph - N/A Rain Rain
3:48 PM 62.6 °F 62.6 °F 100% 29.75 in 7.0 mi WNW 4.6 mph - N/A Rain Light Rain
3:51 PM 62.6 °F 62.6 °F 100% 29.75 in 7.0 mi Variable 5.8 mph - N/A Rain Light Rain
3:58 PM 63.3 °F 63.3 °F 100% 29.74 in 3.0 mi Variable 1.2 mph - 0.11 in Rain Light Rain
4:03 PM 60.8 °F 60.8 °F 100% 29.75 in 2.0 mi North 5.8 mph - N/A Rain Heavy Rain
4:08 PM 60.8 °F 60.8 °F 100% 29.75 in 2.5 mi North 10.4 mph - N/A Rain Light Rain
4:13 PM 60.8 °F 60.8 °F 100% 29.74 in 7.0 mi North 9.2 mph - N/A   Light Drizzle
4:23 PM 60.8 °F 60.8 °F 100% 29.75 in 8.0 mi NNW 11.5 mph - N/A Rain Light Rain
4:33 PM 59.0 °F 59.0 °F 100% 29.76 in 9.0 mi NNW 10.4 mph - N/A Rain Light Rain
4:53 PM 57.2 °F 57.2 °F 100% 29.74 in 8.0 mi North 13.8 mph - N/A Rain Light Rain
4:58 PM 57.2 °F 57.2 °F 100% 29.73 in 10.0 mi North 16.1 mph - 0.11 in Rain Light Rain
5:08 PM 57.2 °F 57.2 °F 100% 29.74 in 10.0 mi North 11.5 mph - N/A   Light Drizzle
5:09 PM 57.2 °F 57.2 °F 100% 29.74 in 10.0 mi North 11.5 mph - N/A   Overcast
5:12 PM 57.2 °F 57.2 °F 100% 29.74 in 8.0 mi North 13.8 mph - N/A Rain Light Rain
5:32 PM 55.4 °F 55.4 °F 100% 29.74 in 9.0 mi North 16.1 mph - N/A   Overcast
5:58 PM 54.9 °F 54.9 °F 100% 29.74 in 10.0 mi NNE 11.5 mph - 0.00 in   Overcast
6:38 PM 53.6 °F 53.6 °F 100% 29.76 in 10.0 mi North 12.7 mph - N/A   Overcast
6:48 PM 53.6 °F 53.6 °F 100% 29.76 in 10.0 mi North 12.7 mph - N/A   Overcast
6:53 PM 53.6 °F 53.6 °F 100% 29.76 in 8.0 mi North 11.5 mph - N/A   Overcast
6:58 PM 53.6 °F 53.6 °F 100% 29.74 in 5.0 mi North 10.4 mph - N/A   Overcast
7:03 PM 53.6 °F 53.6 °F 100% 29.76 in 5.0 mi North 10.4 mph - N/A   Overcast
7:08 PM 53.6 °F 53.6 °F 100% 29.77 in 6.0 mi North 11.5 mph - N/A   Overcast
7:13 PM 53.6 °F 53.6 °F 100% 29.76 in 9.0 mi North 10.4 mph - N/A   Overcast
7:18 PM 53.6 °F 53.6 °F 100% 29.77 in 10.0 mi North 10.4 mph - N/A   Overcast
7:29 PM 53.6 °F 53.6 °F 100% 29.77 in 10.0 mi North 11.5 mph - N/A Rain Light Rain
7:34 PM 53.6 °F 53.6 °F 100% 29.77 in 9.0 mi North 11.5 mph - N/A Rain Light Rain
7:45 PM 53.6 °F 53.6 °F 100% 29.78 in 9.0 mi NNW 13.8 mph - N/A   Overcast
7:58 PM 53.4 °F 53.4 °F 100% 29.76 in 9.0 mi North 16.1 mph - 0.00 in   Overcast
8:03 PM 53.6 °F 53.6 °F 100% 29.77 in 10.0 mi North 16.1 mph - N/A   Overcast
8:53 PM 51.8 °F 51.8 °F 100% 29.78 in 10.0 mi NNE 8.1 mph - N/A   Overcast
8:58 PM 52.5 °F 52.5 °F 100% 29.78 in 10.0 mi NNE 9.2 mph - N/A   Overcast
9:43 PM 51.8 °F 51.8 °F 100% 29.78 in 10.0 mi North 8.1 mph - N/A   Overcast
9:58 PM 52.3 °F 52.3 °F 100% 29.76 in 10.0 mi NNE 8.1 mph - N/A   Overcast
10:13 PM 51.8 °F 51.8 °F 100% 29.77 in 10.0 mi North 8.1 mph - N/A   Overcast
10:43 PM 51.8 °F 51.8 °F 100% 29.76 in 10.0 mi NE 8.1 mph - N/A   Overcast
10:51 PM 51.8 °F 51.8 °F 100% 29.76 in 10.0 mi NNE 8.1 mph - N/A   Overcast
10:58 PM 52.3 °F 52.3 °F 100% 29.76 in 10.0 mi NNE 6.9 mph - N/A   Overcast
11:48 PM 51.8 °F 51.8 °F 100% 29.74 in 10.0 mi NE 8.1 mph - N/A   Overcast
11:58 PM 52.0 °F 52.0 °F 100% 29.72 in 10.0 mi ENE 5.8 mph - N/A   Overcast